{"data":{"norad_id":61928,"epoch":"2026-09-21T15:55:10.872192Z","epoch_age_seconds":85121,"freshness":"FRESH","line1":"1 61928U 24207S   26264.66332028  .00010411  00000+0  38742-3 0  9994","line2":"2 61928  42.9977 254.9875 0001108 263.7331  96.3394 15.27571957104694","mean_motion":15.27571957,"eccentricity":0.0001108,"inclination_deg":42.9977,"raan_deg":254.9875,"arg_perigee_deg":263.7331,"mean_anomaly_deg":96.3394,"bstar":0.00038742,"rev_number":10469,"period_min":94.267245048673,"perigee_km":482.31295769286,"apogee_km":483.8334018687,"semimajor_km":6861.2101797808,"source":"CELESTRAK","updated_at":"2026-09-22T09:00:49.451900Z"}}